Time,TemperatureF,DewpointF,PressureIn,WindDirection,WindDirectionDegrees,WindSpeedMPH,WindSpeedGustMPH,Humidity,HourlyPrecipIn,Conditions,Clouds,dailyrainin,SolarRadiationWatts/m^2,SoftwareType,DateUTC
2013-03-19 00:13:00,29.0,29.0,-100.00,SSE,154,3.0,6.0,100,0.00,,,0.00,1.000000,,2013-03-19 04:13:00,
2013-03-19 00:23:00,29.0,29.0,-100.00,SSE,154,3.0,6.0,100,0.00,,,0.00,1.000000,,2013-03-19 04:23:00,
2013-03-19 00:34:00,29.0,29.0,-100.00,SSE,154,3.0,6.0,100,0.00,,,0.00,1.000000,,2013-03-19 04:34:00,
2013-03-19 00:43:00,29.0,29.0,-100.00,SSE,154,3.0,6.0,100,0.00,,,0.00,1.000000,,2013-03-19 04:43:00,
2013-03-19 01:12:00,29.0,29.0,-100.00,SW,216,4.0,7.0,100,0.00,,,0.00,1.000000,,2013-03-19 05:12:00,
2013-03-19 01:22:00,29.0,29.0,-100.00,SW,216,4.0,7.0,100,0.00,,,0.00,1.000000,,2013-03-19 05:22:00,
2013-03-19 01:32:00,29.0,29.0,-100.00,SW,216,4.0,7.0,100,0.00,,,0.00,1.000000,,2013-03-19 05:32:00,
2013-03-19 01:43:00,29.0,29.0,-100.00,SW,216,4.0,7.0,100,0.00,,,0.00,1.000000,,2013-03-19 05:43:00,
2013-03-19 02:12:00,29.0,29.0,-100.00,SW,225,6.0,10.0,100,0.00,,,0.00,1.000000,,2013-03-19 06:12:00,
2013-03-19 02:22:00,29.0,29.0,-100.00,SW,225,6.0,10.0,100,0.00,,,0.00,1.000000,,2013-03-19 06:22:00,
2013-03-19 02:32:00,29.0,29.0,-100.00,SW,225,6.0,10.0,100,0.00,,,0.00,1.000000,,2013-03-19 06:32:00,
2013-03-19 02:42:00,29.0,29.0,-100.00,SW,225,6.0,10.0,100,0.00,,,0.00,1.000000,,2013-03-19 06:42:00,
2013-03-19 03:12:00,30.0,29.0,-100.00,WSW,237,8.0,13.0,98,0.00,,,0.00,1.000000,,2013-03-19 07:12:00,
2013-03-19 03:22:00,30.0,29.0,-100.00,WSW,237,8.0,13.0,98,0.00,,,0.00,1.000000,,2013-03-19 07:22:00,
2013-03-19 03:32:00,30.0,29.0,-100.00,WSW,237,8.0,13.0,98,0.00,,,0.00,1.000000,,2013-03-19 07:32:00,
2013-03-19 03:42:00,30.0,29.0,-100.00,WSW,237,8.0,13.0,98,0.00,,,0.00,1.000000,,2013-03-19 07:42:00,
2013-03-19 04:13:00,30.0,28.0,-100.00,WSW,248,8.0,13.0,94,0.00,,,0.00,1.000000,,2013-03-19 08:13:00,
2013-03-19 04:22:00,30.0,28.0,-100.00,WSW,248,8.0,13.0,94,0.00,,,0.00,1.000000,,2013-03-19 08:22:00,
2013-03-19 04:32:00,30.0,28.0,-100.00,WSW,248,8.0,13.0,94,0.00,,,0.00,1.000000,,2013-03-19 08:32:00,
2013-03-19 04:42:00,30.0,28.0,-100.00,WSW,248,8.0,13.0,94,0.00,,,0.00,1.000000,,2013-03-19 08:42:00,
2013-03-19 05:12:00,30.0,28.0,-100.00,SW,230,6.0,13.0,93,0.00,,,0.00,1.000000,,2013-03-19 09:12:00,
2013-03-19 05:23:00,30.0,28.0,-100.00,SW,230,6.0,13.0,93,0.00,,,0.00,1.000000,,2013-03-19 09:23:00,
2013-03-19 05:33:00,30.0,28.0,-100.00,SW,230,6.0,13.0,93,0.00,,,0.00,1.000000,,2013-03-19 09:33:00,
2013-03-19 05:43:00,30.0,28.0,-100.00,SW,230,6.0,13.0,93,0.00,,,0.00,1.000000,,2013-03-19 09:43:00,
2013-03-19 06:13:00,29.0,27.0,-100.00,WSW,254,12.0,22.0,92,0.00,,,0.00,1.000000,,2013-03-19 10:13:00,
2013-03-19 06:23:00,29.0,27.0,-100.00,WSW,254,12.0,22.0,92,0.00,,,0.00,1.000000,,2013-03-19 10:23:00,
2013-03-19 06:33:00,29.0,27.0,-100.00,WSW,254,12.0,22.0,92,0.00,,,0.00,1.000000,,2013-03-19 10:33:00,
2013-03-19 06:42:00,29.0,27.0,-100.00,WSW,254,12.0,22.0,92,0.00,,,0.00,1.000000,,2013-03-19 10:42:00,
2013-03-19 07:12:00,24.0,17.0,-100.00,WSW,245,16.0,30.0,75,0.00,,,0.00,1.000000,,2013-03-19 11:12:00,
2013-03-19 07:22:00,24.0,17.0,-100.00,WSW,245,16.0,30.0,75,0.00,,,0.00,1.000000,,2013-03-19 11:22:00,
2013-03-19 07:33:00,24.0,17.0,-100.00,WSW,245,16.0,30.0,75,0.00,,,0.00,1.000000,,2013-03-19 11:33:00,
2013-03-19 07:43:00,24.0,17.0,-100.00,WSW,245,16.0,30.0,75,0.00,,,0.00,1.000000,,2013-03-19 11:43:00,
2013-03-19 08:12:00,22.0,13.0,-100.00,WSW,249,13.0,26.0,69,0.00,,,0.00,1.000000,,2013-03-19 12:12:00,
2013-03-19 08:23:00,22.0,13.0,-100.00,WSW,249,13.0,26.0,69,0.00,,,0.00,1.000000,,2013-03-19 12:23:00,
2013-03-19 08:33:00,22.0,13.0,-100.00,WSW,249,13.0,26.0,69,0.00,,,0.00,1.000000,,2013-03-19 12:33:00,
2013-03-19 08:43:00,22.0,13.0,-100.00,WSW,249,13.0,26.0,69,0.00,,,0.00,1.000000,,2013-03-19 12:43:00,
2013-03-19 09:12:00,21.0,12.0,-100.00,WSW,249,12.0,28.0,67,0.00,,,0.00,54.000000,,2013-03-19 13:12:00,
2013-03-19 09:23:00,21.0,12.0,-100.00,WSW,249,12.0,28.0,67,0.00,,,0.00,54.000000,,2013-03-19 13:23:00,
2013-03-19 09:33:00,21.0,12.0,-100.00,WSW,249,12.0,28.0,67,0.00,,,0.00,54.000000,,2013-03-19 13:33:00,
2013-03-19 09:42:00,21.0,12.0,-100.00,WSW,249,12.0,28.0,67,0.00,,,0.00,54.000000,,2013-03-19 13:42:00,
2013-03-19 10:12:00,23.0,12.0,-100.00,WSW,243,12.0,22.0,63,0.00,,,0.00,161.000000,,2013-03-19 14:12:00,
2013-03-19 10:22:00,23.0,12.0,-100.00,WSW,243,12.0,22.0,63,0.00,,,0.00,161.000000,,2013-03-19 14:22:00,
2013-03-19 10:32:00,23.0,12.0,-100.00,WSW,243,12.0,22.0,63,0.00,,,0.00,161.000000,,2013-03-19 14:32:00,
2013-03-19 10:42:00,23.0,12.0,-100.00,WSW,243,12.0,22.0,63,0.00,,,0.00,161.000000,,2013-03-19 14:42:00,
2013-03-19 11:12:00,24.0,13.0,-100.00,West,263,14.0,25.0,62,0.00,,,0.00,334.000000,,2013-03-19 15:12:00,
2013-03-19 11:23:00,24.0,13.0,-100.00,West,263,14.0,25.0,62,0.00,,,0.00,334.000000,,2013-03-19 15:23:00,
2013-03-19 11:34:00,24.0,13.0,-100.00,West,263,14.0,25.0,62,0.00,,,0.00,334.000000,,2013-03-19 15:34:00,
2013-03-19 11:44:00,24.0,13.0,-100.00,West,263,14.0,25.0,62,0.00,,,0.00,334.000000,,2013-03-19 15:44:00,
2013-03-19 12:13:00,25.0,13.0,-100.00,WSW,248,14.0,28.0,61,0.00,,,0.00,362.000000,,2013-03-19 16:13:00,
2013-03-19 12:24:00,25.0,13.0,-100.00,WSW,248,14.0,28.0,61,0.00,,,0.00,362.000000,,2013-03-19 16:24:00,
2013-03-19 12:34:00,25.0,13.0,-100.00,WSW,248,14.0,28.0,61,0.00,,,0.00,362.000000,,2013-03-19 16:34:00,
2013-03-19 12:44:00,25.0,13.0,-100.00,WSW,248,14.0,28.0,61,0.00,,,0.00,362.000000,,2013-03-19 16:44:00,
2013-03-19 13:14:00,26.0,12.0,-100.00,West,262,18.0,31.0,55,0.00,,,0.00,374.000000,,2013-03-19 17:14:00,
2013-03-19 13:24:00,26.0,12.0,-100.00,West,262,18.0,31.0,55,0.00,,,0.00,374.000000,,2013-03-19 17:24:00,
2013-03-19 13:34:00,26.0,12.0,-100.00,West,262,18.0,31.0,55,0.00,,,0.00,374.000000,,2013-03-19 17:34:00,
2013-03-19 13:44:00,26.0,12.0,-100.00,West,262,18.0,31.0,55,0.00,,,0.00,374.000000,,2013-03-19 17:44:00,
2013-03-19 14:14:00,27.0,13.0,-100.00,WSW,256,16.0,27.0,56,0.00,,,0.00,441.000000,,2013-03-19 18:14:00,
2013-03-19 14:23:00,27.0,13.0,-100.00,WSW,256,16.0,27.0,56,0.00,,,0.00,441.000000,,2013-03-19 18:23:00,
2013-03-19 14:34:00,27.0,13.0,-100.00,WSW,256,16.0,27.0,56,0.00,,,0.00,441.000000,,2013-03-19 18:34:00,
2013-03-19 14:43:00,27.0,13.0,-100.00,WSW,256,16.0,27.0,56,0.00,,,0.00,441.000000,,2013-03-19 18:43:00,
2013-03-19 15:12:00,28.0,13.0,-100.00,West,269,18.0,25.0,53,0.00,,,0.00,345.000000,,2013-03-19 19:12:00,
2013-03-19 15:22:00,28.0,13.0,-100.00,West,269,18.0,25.0,53,0.00,,,0.00,345.000000,,2013-03-19 19:22:00,
2013-03-19 15:33:00,28.0,13.0,-100.00,West,269,18.0,25.0,53,0.00,,,0.00,345.000000,,2013-03-19 19:33:00,
2013-03-19 15:43:00,28.0,13.0,-100.00,West,269,18.0,25.0,53,0.00,,,0.00,345.000000,,2013-03-19 19:43:00,
2013-03-19 16:12:00,29.0,14.0,-100.00,WNW,285,12.0,26.0,53,0.00,,,0.00,419.000000,,2013-03-19 20:12:00,
2013-03-19 16:23:00,29.0,14.0,-100.00,WNW,285,12.0,26.0,53,0.00,,,0.00,419.000000,,2013-03-19 20:23:00,
2013-03-19 16:33:00,29.0,14.0,-100.00,WNW,285,12.0,26.0,53,0.00,,,0.00,419.000000,,2013-03-19 20:33:00,
2013-03-19 16:43:00,29.0,14.0,-100.00,WNW,285,12.0,26.0,53,0.00,,,0.00,419.000000,,2013-03-19 20:43:00,
2013-03-19 17:12:00,28.0,15.0,-100.00,West,273,15.0,26.0,58,0.00,,,0.00,330.000000,,2013-03-19 21:12:00,
2013-03-19 17:23:00,28.0,15.0,-100.00,West,273,15.0,26.0,58,0.00,,,0.00,330.000000,,2013-03-19 21:23:00,
2013-03-19 17:34:00,28.0,15.0,-100.00,West,273,15.0,26.0,58,0.00,,,0.00,330.000000,,2013-03-19 21:34:00,
2013-03-19 17:43:00,28.0,15.0,-100.00,West,273,15.0,26.0,58,0.00,,,0.00,330.000000,,2013-03-19 21:43:00,
2013-03-19 18:13:00,26.0,17.0,-100.00,West,266,13.0,25.0,68,0.00,,,0.00,205.000000,,2013-03-19 22:13:00,
2013-03-19 18:24:00,26.0,17.0,-100.00,West,266,13.0,25.0,68,0.00,,,0.00,205.000000,,2013-03-19 22:24:00,
2013-03-19 18:33:00,26.0,17.0,-100.00,West,266,13.0,25.0,68,0.00,,,0.00,205.000000,,2013-03-19 22:33:00,
2013-03-19 18:43:00,26.0,17.0,-100.00,West,266,13.0,25.0,68,0.00,,,0.00,205.000000,,2013-03-19 22:43:00,
2013-03-19 19:13:00,25.0,15.0,-100.00,West,273,14.0,26.0,64,0.00,,,0.00,110.000000,,2013-03-19 23:13:00,
2013-03-19 19:22:00,25.0,15.0,-100.00,West,273,14.0,26.0,64,0.00,,,0.00,110.000000,,2013-03-19 23:22:00,
2013-03-19 19:33:00,25.0,15.0,-100.00,West,273,14.0,26.0,64,0.00,,,0.00,110.000000,,2013-03-19 23:33:00,
2013-03-19 19:43:00,25.0,15.0,-100.00,West,273,14.0,26.0,64,0.00,,,0.00,110.000000,,2013-03-19 23:43:00,
2013-03-19 20:13:00,24.0,15.0,-100.00,West,267,12.0,24.0,68,0.00,,,0.00,31.000000,,2013-03-20 00:13:00,
2013-03-19 20:22:00,24.0,15.0,-100.00,West,267,12.0,24.0,68,0.00,,,0.00,31.000000,,2013-03-20 00:22:00,
2013-03-19 20:33:00,24.0,15.0,-100.00,West,267,12.0,24.0,68,0.00,,,0.00,31.000000,,2013-03-20 00:33:00,
2013-03-19 20:42:00,24.0,15.0,-100.00,West,267,12.0,24.0,68,0.00,,,0.00,31.000000,,2013-03-20 00:42:00,
2013-03-19 21:12:00,24.0,16.0,-100.00,West,269,11.0,20.0,70,0.00,,,0.00,1.000000,,2013-03-20 01:12:00,
2013-03-19 21:23:00,24.0,16.0,-100.00,West,269,11.0,20.0,70,0.00,,,0.00,1.000000,,2013-03-20 01:23:00,
2013-03-19 21:32:00,24.0,16.0,-100.00,West,269,11.0,20.0,70,0.00,,,0.00,1.000000,,2013-03-20 01:32:00,
2013-03-19 21:42:00,24.0,16.0,-100.00,West,269,11.0,20.0,70,0.00,,,0.00,1.000000,,2013-03-20 01:42:00,
2013-03-19 22:12:00,24.0,16.0,-100.00,West,270,11.0,20.0,71,0.00,,,0.00,1.000000,,2013-03-20 02:12:00,
2013-03-19 22:23:00,24.0,16.0,-100.00,West,270,11.0,20.0,71,0.00,,,0.00,1.000000,,2013-03-20 02:23:00,
2013-03-19 22:32:00,24.0,16.0,-100.00,West,270,11.0,20.0,71,0.00,,,0.00,1.000000,,2013-03-20 02:32:00,
2013-03-19 22:42:00,24.0,16.0,-100.00,West,270,11.0,20.0,71,0.00,,,0.00,1.000000,,2013-03-20 02:42:00,
2013-03-19 23:12:00,23.0,17.0,-100.00,West,273,10.0,20.0,77,0.00,,,0.00,1.000000,,2013-03-20 03:12:00,
2013-03-19 23:22:00,23.0,17.0,-100.00,West,273,10.0,20.0,77,0.00,,,0.00,1.000000,,2013-03-20 03:22:00,
2013-03-19 23:34:00,23.0,17.0,-100.00,West,273,10.0,20.0,77,0.00,,,0.00,1.000000,,2013-03-20 03:34:00,
2013-03-19 23:43:00,23.0,17.0,-100.00,West,273,10.0,20.0,77,0.00,,,0.00,1.000000,,2013-03-20 03:43:00,